Hourly Data Report for October 09, 2014

All times are specified in Local Standard Time (LST). Add 1 hour to adjust for Daylight Saving Time where and when it is observed.

KITCHENER/WATERLOO
ONTARIO

43°27'39.000" N
80°22'43.000" W
321.60 m
6144239
71368
YKF

Download Data

Hourly Data (October 2014)
Hourly Data Report for October 9, 2014
Temp Definition
°C
Dew Point Temp Definition
°C
Rel Hum Definition
%
Wind Dir Definition
10's deg

Wind Spd Definition
km/h
Visibility Definition
km
Stn Press Definition
kPa
Hmdx Definition


Wind Chill Definition


Weather Definition


TIME
00:00 Legend Double Dagger 5.5 2.1 79 27 18 16.1 97.53     LegendNANA
01:00 Legend Double Dagger 3.8 1.8 87 23 11 16.1 97.55     LegendNANA
02:00 Legend Double Dagger 2.8 1.2 89 25 8 16.1 97.53     LegendNANA
03:00 Legend Double Dagger 2.4 0.9 90 25 11 16.1 97.50     LegendNANA
04:00 Legend Double Dagger 2.9 1.0 87 25 13 16.1 97.52     LegendNANA
05:00 Legend Double Dagger 2.6 0.8 88 24 13 16.1 97.54     LegendNANA
06:00 Legend Double Dagger 2.7 0.6 86 25 13 16.1 97.57     LegendNANA
07:00 Legend Double Dagger 3.5 0.7 82 25 13 16.1 97.57     LegendNANA
08:00 Legend Double Dagger 7.4 0.9 63 26 21 16.1 97.56     LegendNANA
09:00 Legend Double Dagger 9.6 2.0 59 25 30 16.1 97.61     LegendNANA
10:00 Legend Double Dagger 10.8 1.1 51 26 35 16.1 97.61     LegendNANA
11:00 Legend Double Dagger 12.0 2.3 51 27 28 16.1 97.66     LegendNANA
12:00 Legend Double Dagger 12.2 3.0 53 29 34 16.1 97.69     LegendNANA
13:00 Legend Double Dagger 11.8 2.6 53 30 35 16.1 97.68     LegendNANA
14:00 Legend Double Dagger 10.6 3.1 59 28 32 16.1 97.74     LegendNANA
15:00 Legend Double Dagger 10.7 3.1 59 30 28 16.1 97.75     LegendNANA
16:00 Legend Double Dagger 10.2 2.6 59 30 24 16.1 97.80     LegendNANA
17:00 Legend Double Dagger 9.2 3.1 65 29 17 16.1 97.85     LegendNANA
18:00 Legend Double Dagger 8.9 2.8 66 29 17 16.1 97.91     LegendNANA
19:00 Legend Double Dagger 7.2 2.5 72 29 9 16.1 97.94     LegendNANA
20:00 Legend Double Dagger 6.0 2.5 78 24 9 16.1 97.95     LegendNANA
21:00 Legend Double Dagger 5.0 2.5 84 29 5 16.1 97.95     LegendNANA
22:00 Legend Double Dagger 4.3 2.0 85 31 11 16.1 97.98     LegendNANA
23:00 Legend Double Dagger 3.1 1.9 92 LegendMM 4 16.1 97.95     LegendNANA

Notes on Data Quality.

Legend

  • E = Estimated
  • M = Missing
  • NA = Not Available
  • ‡ = Partner data that is not subject to review by the National Climate Archives
Date modified: